When you browse on this site, cookies collect data to enhance your experience and personalize the content and advertising you see.
Visit our Privacy Policy to learn more. By continuing to use the site, you agree to this use of cookies and data.
  • Em Portugal
  • Lista de países
  • Para 7 dias
  • Temperatura da água
  • Mapas de satélite
  • Mapa do tempo
  • Widgets de tempo
  • user-avatar
    Iniciar Sessão

    Previsão horária em Djelfa

    Hoje, 25 Março, Segunda-feira

    Tempo Temperatura Precipitação Vento Pressão Humidade
    00:00 +8°C° 0 mm 4 m/s 667 mmHg 54%
    01:00 +7°C° 0 mm 4 m/s 666 mmHg 56%
    02:00 +7°C° 0 mm 4 m/s 666 mmHg 58%
    03:00 +8°C° 0 mm 3 m/s 666 mmHg 59%
    04:00 +8°C° 0 mm 3 m/s 666 mmHg 60%
    05:00 +7°C° 0 mm 3 m/s 665 mmHg 61%
    06:00 +7°C° 0 mm 2 m/s 665 mmHg 62%
    07:00 +9°C° 0 mm 3 m/s 666 mmHg 55%
    08:00 +11°C° 0 mm 3 m/s 666 mmHg 48%
    09:00 +13°C° 0 mm 4 m/s 667 mmHg 41%
    10:00 +14°C° 0 mm 4 m/s 667 mmHg 39%
    11:00 +15°C° 0 mm 4 m/s 667 mmHg 36%
    12:00 +15°C° 0 mm 5 m/s 667 mmHg 37%
    13:00 +15°C° 0 mm 4 m/s 666 mmHg 37%
    14:00 +15°C° 0 mm 4 m/s 666 mmHg 37%
    15:00 +17°C° 0 mm 4 m/s 665 mmHg 37%
    16:00 +16°C° 0 mm 3 m/s 665 mmHg 39%
    17:00 +16°C° 0 mm 3 m/s 664 mmHg 42%
    18:00 +15°C° 0 mm 2 m/s 664 mmHg 44%
    19:00 +15°C° 0 mm 2 m/s 664 mmHg 45%
    20:00 +14°C° 0 mm 3 m/s 664 mmHg 46%
    21:00 +13°C° 0 mm 3 m/s 664 mmHg 47%
    22:00 +13°C° 0 mm 3 m/s 664 mmHg 49%
    23:00 +12°C° 0 mm 3 m/s 664 mmHg 51%

    Amanhã, 26 Março, Terça-feira

    Tempo Temperatura Precipitação Vento Pressão Humidade
    00:00 +11°C° 0 mm 3 m/s 664 mmHg 54%
    01:00 +11°C° 0 mm 3 m/s 663 mmHg 56%
    02:00 +11°C° 0 mm 3 m/s 663 mmHg 58%
    03:00 +10°C° 0 mm 2 m/s 662 mmHg 60%
    04:00 +10°C° 0 mm 2 m/s 662 mmHg 60%
    05:00 +10°C° 0 mm 2 m/s 662 mmHg 61%
    06:00 +10°C° 0 mm 2 m/s 662 mmHg 61%
    07:00 +13°C° 0 mm 2 m/s 663 mmHg 54%
    08:00 +14°C° 0 mm 3 m/s 664 mmHg 47%
    09:00 +17°C° 0 mm 4 m/s 664 mmHg 40%
    10:00 +17°C° 0 mm 4 m/s 664 mmHg 39%
    11:00 +17°C° 0 mm 4 m/s 664 mmHg 39%
    12:00 +17°C° 0 mm 4 m/s 664 mmHg 39%
    13:00 +17°C° 0 mm 4 m/s 664 mmHg 42%
    14:00 +17°C° 0 mm 4 m/s 663 mmHg 45%
    15:00 +17°C° 0 mm 3 m/s 663 mmHg 49%
    16:00 +15°C° 0.8 mm 4 m/s 662 mmHg 55%
    17:00 +14°C° 0.8 mm 4 m/s 662 mmHg 61%
    18:00 +12°C° 0.8 mm 5 m/s 662 mmHg 67%
    19:00 +10°C° 1.1 mm 5 m/s 662 mmHg 74%
    20:00 +9°C° 1.1 mm 5 m/s 662 mmHg 80%
    21:00 +8°C° 1.1 mm 5 m/s 663 mmHg 86%
    22:00 +8°C° 1.1 mm 5 m/s 663 mmHg 87%
    23:00 +7°C° 1.1 mm 5 m/s 663 mmHg 88%

    Depois de amanhã, 27 Março, Quarta-feira

    Tempo Temperatura Precipitação Vento Pressão Humidade
    00:00 +7°C° 1.1 mm 5 m/s 663 mmHg 89%
    01:00 +6°C° 0.6 mm 4 m/s 662 mmHg 88%
    02:00 +6°C° 0.6 mm 4 m/s 662 mmHg 88%
    03:00 +6°C° 0.6 mm 4 m/s 662 mmHg 87%
    04:00 +5°C° 0.5 mm 5 m/s 662 mmHg 86%
    05:00 +5°C° 0.5 mm 5 m/s 662 mmHg 86%
    06:00 +3°C° 0.5 mm 5 m/s 662 mmHg 85%
    07:00 +3°C° 0.3 mm 5 m/s 662 mmHg 84%
    08:00 +3°C° 0.3 mm 5 m/s 662 mmHg 82%
    09:00 +3°C° 0.3 mm 5 m/s 663 mmHg 80%
    10:00 +3°C° 0.1 mm 5 m/s 663 mmHg 78%
    11:00 +3°C° 0.1 mm 5 m/s 663 mmHg 75%
    12:00 +5°C° 0.1 mm 4 m/s 663 mmHg 73%
    13:00 +5°C° 0 mm 5 m/s 663 mmHg 71%
    14:00 +5°C° 0 mm 5 m/s 663 mmHg 69%
    15:00 +4°C° 0 mm 6 m/s 663 mmHg 66%
    16:00 +5°C° 0.5 mm 5 m/s 663 mmHg 66%
    17:00 +5°C° 0.5 mm 5 m/s 663 mmHg 66%
    18:00 +5°C° 0.5 mm 4 m/s 663 mmHg 66%
    19:00 +5°C° 1 mm 4 m/s 664 mmHg 67%
    20:00 +5°C° 1 mm 3 m/s 664 mmHg 68%
    21:00 +5°C° 1 mm 3 m/s 665 mmHg 68%
    22:00 +5°C° 0.8 mm 3 m/s 665 mmHg 70%
    23:00 +5°C° 0.8 mm 3 m/s 665 mmHg 72%

    28 Março, Quinta-feira

    Tempo Temperatura Precipitação Vento Pressão Humidade
    00:00 +4°C° 0.8 mm 3 m/s 665 mmHg 74%
    01:00 +4°C° 0.3 mm 3 m/s 665 mmHg 77%
    02:00 +4°C° 0.3 mm 3 m/s 665 mmHg 80%
    03:00 +5°C° 0.3 mm 2 m/s 665 mmHg 84%
    04:00 +5°C° 0.2 mm 2 m/s 665 mmHg 85%
    05:00 +5°C° 0.2 mm 2 m/s 665 mmHg 87%
    06:00 +5°C° 0.2 mm 2 m/s 665 mmHg 89%
    07:00 +5°C° 0.1 mm 2 m/s 666 mmHg 84%
    08:00 +6°C° 0.1 mm 2 m/s 666 mmHg 80%
    09:00 +7°C° 0.1 mm 2 m/s 666 mmHg 75%
    10:00 +8°C° 0 mm 2 m/s 667 mmHg 70%
    11:00 +8°C° 0 mm 2 m/s 667 mmHg 65%
    12:00 +10°C° 0 mm 1 m/s 667 mmHg 61%
    13:00 +11°C° 0 mm 1 m/s 666 mmHg 58%
    14:00 +11°C° 0 mm 1 m/s 666 mmHg 55%
    15:00 +12°C° 0 mm 1 m/s 666 mmHg 52%
    16:00 +12°C° 0 mm 1 m/s 666 mmHg 50%
    17:00 +12°C° 0 mm 1 m/s 666 mmHg 49%
    18:00 +12°C° 0 mm 1 m/s 666 mmHg 48%
    19:00 +10°C° 0 mm 2 m/s 667 mmHg 49%
    20:00 +9°C° 0 mm 2 m/s 667 mmHg 50%
    21:00 +9°C° 0 mm 2 m/s 668 mmHg 51%
    22:00 +8°C° 0 mm 2 m/s 667 mmHg 56%
    23:00 +8°C° 0 mm 2 m/s 667 mmHg 62%

    29 Março, Sexta-feira

    Tempo Temperatura Precipitação Vento Pressão Humidade
    00:00 +7°C° 0 mm 2 m/s 667 mmHg 67%
    01:00 +8°C° 0 mm 1 m/s 667 mmHg 71%
    02:00 +7°C° 0 mm 1 m/s 667 mmHg 74%
    03:00 +7°C° 0 mm 1 m/s 666 mmHg 78%
    04:00 +7°C° 0 mm 1 m/s 667 mmHg 79%
    05:00 +7°C° 0 mm 1 m/s 667 mmHg 80%
    06:00 +6°C° 0 mm 1 m/s 667 mmHg 81%
    07:00 +7°C° 0 mm 2 m/s 667 mmHg 70%
    08:00 +9°C° 0 mm 3 m/s 668 mmHg 59%
    09:00 +10°C° 0 mm 4 m/s 669 mmHg 48%
    10:00 +11°C° 0 mm 4 m/s 669 mmHg 45%
    11:00 +12°C° 0 mm 4 m/s 668 mmHg 43%
    12:00 +13°C° 0 mm 4 m/s 668 mmHg 40%
    13:00 +13°C° 0 mm 4 m/s 668 mmHg 40%
    14:00 +13°C° 0 mm 4 m/s 668 mmHg 40%
    15:00 +13°C° 0 mm 4 m/s 667 mmHg 40%
    16:00 +13°C° 0 mm 4 m/s 667 mmHg 42%
    17:00 +13°C° 0 mm 4 m/s 667 mmHg 43%
    18:00 +12°C° 0 mm 4 m/s 667 mmHg 44%
    19:00 +12°C° 0 mm 4 m/s 668 mmHg 46%
    20:00 +10°C° 0 mm 5 m/s 668 mmHg 48%
    21:00 +10°C° 0 mm 5 m/s 668 mmHg 49%
    22:00 +9°C° 0 mm 6 m/s 668 mmHg 51%
    23:00 +9°C° 0 mm 6 m/s 668 mmHg 54%

    30 Março, Sábado

    Tempo Temperatura Precipitação Vento Pressão Humidade
    00:00 +8°C° 0 mm 7 m/s 668 mmHg 56%
    01:00 +8°C° 0 mm 6 m/s 668 mmHg 58%
    02:00 +7°C° 0 mm 6 m/s 668 mmHg 60%
    03:00 +5°C° 0 mm 6 m/s 668 mmHg 62%
    04:00 +5°C° 0 mm 6 m/s 668 mmHg 63%
    05:00 +5°C° 0 mm 6 m/s 668 mmHg 64%
    06:00 +6°C° 0 mm 5 m/s 668 mmHg 65%
    07:00 +7°C° 0 mm 6 m/s 668 mmHg 59%
    08:00 +9°C° 0 mm 6 m/s 669 mmHg 54%
    09:00 +10°C° 0 mm 7 m/s 669 mmHg 49%
    10:00 +11°C° 0 mm 8 m/s 669 mmHg 44%
    11:00 +12°C° 0 mm 8 m/s 669 mmHg 39%
    12:00 +13°C° 0 mm 9 m/s 669 mmHg 34%
    13:00 +13°C° 0 mm 9 m/s 668 mmHg 32%
    14:00 +13°C° 0 mm 9 m/s 668 mmHg 30%
    15:00 +15°C° 0 mm 9 m/s 667 mmHg 29%
    16:00 +13°C° 0 mm 8 m/s 667 mmHg 31%
    17:00 +12°C° 0 mm 7 m/s 667 mmHg 34%
    18:00 +12°C° 0 mm 7 m/s 667 mmHg 36%
    19:00 +11°C° 0 mm 7 m/s 667 mmHg 39%
    20:00 +10°C° 0 mm 8 m/s 667 mmHg 42%
    21:00 +10°C° 0 mm 9 m/s 667 mmHg 44%
    22:00 +8°C° 0.1 mm 9 m/s 667 mmHg 48%
    23:00 +8°C° 0.1 mm 9 m/s 666 mmHg 51%
    Mostrar mais